shenyang , China , ASIA

  • Sunday
    May 28

    Cloudy  Cloudy

    84 °F  57 °F

    Southwest  North

    3~4L   3~4L 

  • Monday
    May 29

    Cloudy  Cloudy

    77 °F  57 °F

    Southwest  Southwest

    3~4L   3~4L 

  • Tuesday
    May 30

    Cloudy  Cloudy

    79 °F  55 °F

    Southwest  Southwest

    3~4L   3~4L 

  • Wednesday
    May 31

    Cloudy  Cloudy

    81 °F  61 °F

    Southwest  Southwest

    3~4L   3~4L 

  • Thursday
    June 1

    Cloudy  Cloudy

    81 °F  59 °F

    Southwest  Northeast

    3~4L   3~4L 

  • Friday
    June 2

    Cloudy  Sunny

    81 °F  55 °F

    Northeast  Northeast

    3~4L   3~4L 

  • Saturday
    June 3

    Sunny  Light rain

    77 °F  52 °F

    Northeast  No wind

    3~4L    

Date   Weather Temperature Humidity Total_rain Visibility Wind
11:00 Cloudy 80°F 61.5% 0mm 999.9km Southwest  4.8m/s
14:00 Cloudy 84°F 53.9% 0mm 999.9km Northwest  5.1m/s
17:00 Cloudy 82°F 55.5% 0mm 999.9km Northwest  5.5m/s
20:00 Cloudy 75°F 54.1% 0mm 999.9km Northwest  4.2m/s
23:00 Cloudy 70°F 56.6% 0mm 999.9km Northeast  4.3m/s
02:00 Cloudy 63°F 59% 0mm 999.9km Northeast  3.1m/s
05:00 Cloudy 58°F 78.9% 0mm 999.9km Northeast  2.5m/s
08:00 Cloudy 62°F 53.4% 0mm 999.9km Northeast  2.0m/s
11:00 Cloudy 72°F 55.1% 0mm 999.9km Northwest  2.1m/s
14:00 Cloudy 66°F 66.7% 0mm 999.9km Southeast  2.5m/s
17:00 Cloudy 66°F 69.7% 0mm 999.9km Southeast  1.3m/s
20:00 Cloudy 66°F 84.2% 0mm 999.9km Southeast  2.2m/s
23:00 Cloudy 62°F 92.4% 0mm 999.9km Southeast  2.7m/s
02:00 Cloudy 58°F 95.6% 0mm 999.9km Southeast  2.5m/s
05:00 Cloudy 58°F 91.1% 0mm 999.9km Southeast  2.4m/s
08:00 Cloudy 77°F 62.7% 0mm 999.9km Southwest  2.6m/s
11:00 Cloudy 78°F 54.6% 0mm 999.9km Southwest  6.2m/s
14:00 Cloudy 71°F 61.3% 0mm 999.9km Southwest  6.6m/s
17:00 Cloudy 69°F 65.5% 0mm 999.9km Southwest  5.0m/s
20:00 Cloudy 67°F 72.6% 0mm 999.9km Southwest  5.0m/s
23:00 Cloudy 63°F 81.5% 0mm 999.9km Southwest  4.3m/s
02:00 Cloudy 58°F 91.9% 0mm 999.9km Southwest  2.8m/s
05:00 Cloudy 56°F 92.4% 0mm 999.9km Southeast  2.3m/s
08:00 Cloudy 70°F 67.9% 0mm 999.9km Southwest  1.5m/s
11:00 Cloudy 75°F 50.7% 0mm 999.9km Southwest  0.2m/s
14:00 Cloudy 80°F 57.7% 0mm 999.9km Southwest  0.8m/s
17:00 Cloudy 76°F 57.6% 0mm 999.9km Southwest  1.8m/s
20:00 Cloudy 72°F 75.1% 0mm 999.9km Southwest  3.4m/s
23:00 Cloudy 68°F 78.9% 0mm 999.9km Southwest  4.4m/s
02:00 Cloudy 61°F 82.4% 0mm 999.9km Southwest  4.5m/s
05:00 Cloudy 62°F 82.9% 0mm 999.9km Southwest  4.6m/s
08:00 Cloudy 70°F 77% 0mm 999.9km Southwest  4.1m/s
11:00 Cloudy 80°F 62% 0mm 999.9km Northwest  3.0m/s
14:00 Cloudy 74°F 81.5% 0mm 999.9km Northeast  6.7m/s
17:00 Cloudy 73°F 65.3% 0mm 999.9km Northeast  6.7m/s
20:00 Cloudy 70°F 66.6% 0mm 999.9km Northeast  4.9m/s
23:00 Cloudy 60°F 77.8% 0mm 999.9km Northeast  1.1m/s
02:00 Cloudy 60°F 76.6% 0mm 999.9km Northeast  4.0m/s
05:00 Cloudy 59°F 75.2% 0mm 999.9km Northwest  2.4m/s
08:00 Cloudy 69°F 64.6% 0mm 999.9km Northwest  5.7m/s
11:00 Cloudy 80°F 50.8% 0mm 999.9km Northwest  7.0m/s
14:00 Cloudy 73°F 51.7% 0mm 999.9km Northeast  8.5m/s
17:00 Cloudy 72°F 53% 0mm 999.9km Northwest  5.3m/s
20:00 Cloudy 72°F 54.4% 0mm 999.9km Northeast  4.3m/s
23:00 Sunny 62°F 66.6% 0mm 999.9km Northwest  3.3m/s
02:00 Sunny 56°F 72.1% 0mm 999.9km Northeast  3.0m/s
05:00 Sunny 57°F 70.7% 0mm 999.9km Northwest  2.6m/s
08:00 Sunny 72°F 51.1% 0mm 999.9km Northeast  2.7m/s
11:00 Sunny 73°F 39.3% 0mm 999.9km Northwest  6.4m/s
14:00 Sunny 77°F 48.1% 0mm 999.9km Northeast  4.5m/s
17:00 Sunny 71°F 57.1% 0mm 999.9km Northeast  5.2m/s
20:00 Sunny 68°F 60% 0mm 999.9km Northeast  2.1m/s
23:00 Cloudy 55°F 75.6% 0mm 999.9km Northeast  2.4m/s
02:00 Light rain 53°F 81.8% 0.2mm 999.9km Northeast  1.4m/s
05:00 Light rain 53°F 85.7% 0.6mm 999.9km Northeast  2.0m/s